Weather reports worldwide

Advertisment
Winterbourne No 2, United Kingdom (99062): temperature & dewpoint: 10.01.2021 05:00:00 - 16.01.2021 05:00:00 (GMT)Winterbourne No 2, United Kingdom (99062): temperature -20cm & temperature -100cm: 10.01.2021 05:00:00 - 16.01.2021 05:00:00 (GMT)Winterbourne No 2, United Kingdom (99062): precipitation: 10.01.2021 05:00:00 - 16.01.2021 05:00:00 (GMT)
Date & Time tt [°C] td [°C] tt -20cm [°C] tt -100cm [°C] rr [mm]
16.01.2021 05:00:00 - - - - -
16.01.2021 04:00:00 2,7 2,1 - - 3,2
16.01.2021 03:00:00 2,5 1,9 - - 0,8
16.01.2021 02:00:00 2,0 1,1 - - 0,0
16.01.2021 01:00:00 1,4 0,6 - - 0,0
16.01.2021 00:00:00 0,8 -0,1 - - 0,0
15.01.2021 23:00:00 0,3 -0,3 - - 0,0
15.01.2021 22:00:00 0,1 -0,4 - - 0,0
15.01.2021 21:00:00 -0,8 -1,2 - - 0,0
15.01.2021 20:00:00 -0,8 -1,1 - - 0,0
15.01.2021 19:00:00 -0,8 -1,4 - - 0,0
15.01.2021 18:00:00 -0,3 -1,0 - - 0,0
15.01.2021 17:00:00 -0,1 -0,8 - - 0,0
15.01.2021 16:00:00 -0,1 -0,8 - - 0,0
15.01.2021 15:00:00 0,2 -0,5 - - 0,0
15.01.2021 14:00:00 0,7 -0,1 - - 0,0
15.01.2021 13:00:00 0,2 -0,7 - - 0,0
15.01.2021 12:00:00 0,0 -0,6 - - 0,0
15.01.2021 11:00:00 0,0 -0,5 - - 0,0
15.01.2021 10:00:00 -0,2 -0,6 - - 0,0
15.01.2021 09:00:00 -0,5 -0,9 5,5 6,7 0,0
15.01.2021 08:00:00 -0,3 -0,7 - - 0,0
15.01.2021 07:00:00 -0,2 -0,6 - - 0,0
15.01.2021 06:00:00 0,0 -0,5 - - 0,0
15.01.2021 05:00:00 0,1 -0,4 - - 0,0
15.01.2021 04:00:00 0,2 -0,1 - - 0,0
15.01.2021 03:00:00 0,4 0,1 - - 0,0
15.01.2021 02:00:00 0,3 -0,1 - - 0,0
15.01.2021 01:00:00 0,7 0,3 - - 0,0
15.01.2021 00:00:00 0,6 -0,1 - - 0,0
14.01.2021 23:00:00 1,4 0,8 - - 0,0
14.01.2021 22:00:00 1,3 0,8 - - 0,0
14.01.2021 21:00:00 1,5 1,0 - - 0,0
14.01.2021 20:00:00 1,5 1,1 - - 0,2
14.01.2021 19:00:00 1,5 1,1 - - 0,0
14.01.2021 18:00:00 1,7 1,2 - - 0,0
14.01.2021 17:00:00 1,6 1,2 - - 0,0
14.01.2021 16:00:00 1,7 1,4 - - 0,0
14.01.2021 15:00:00 1,8 1,4 - - 0,0
14.01.2021 14:00:00 2,2 1,8 - - 0,0
14.01.2021 13:00:00 3,5 3,3 - - 0,2
14.01.2021 12:00:00 4,0 3,9 - - 0,2
14.01.2021 11:00:00 3,9 3,7 - - 0,2
14.01.2021 10:00:00 3,9 3,8 - - 0,0
14.01.2021 09:00:00 3,6 3,5 5,7 6,7 1,2
14.01.2021 08:00:00 3,8 3,7 - - 0,2
14.01.2021 07:00:00 4,3 4,2 - - 0,4
14.01.2021 06:00:00 4,5 4,3 - - 0,0
14.01.2021 05:00:00 5,4 5,2 - - 0,0
14.01.2021 04:00:00 5,2 5,0 - - 0,6
14.01.2021 03:00:00 5,3 4,8 - - 1,2
14.01.2021 02:00:00 6,5 5,7 - - 2,2
14.01.2021 01:00:00 8,9 8,6 - - 2,4
14.01.2021 00:00:00 8,8 8,5 - - 1,2
13.01.2021 23:00:00 8,9 8,5 - - 1,8
13.01.2021 22:00:00 9,0 8,3 - - 0,2
13.01.2021 21:00:00 9,3 8,1 - - 0,0
13.01.2021 20:00:00 9,2 7,9 - - 0,0
13.01.2021 19:00:00 9,4 7,9 - - 0,0
13.01.2021 18:00:00 9,5 8,3 - - 0,0
13.01.2021 17:00:00 9,7 8,6 - - 0,0
13.01.2021 16:00:00 9,6 8,8 - - 0,0
13.01.2021 15:00:00 9,1 8,9 - - 0,2
13.01.2021 14:00:00 8,6 8,5 - - 0,2
13.01.2021 13:00:00 8,1 8,1 - - 0,0
13.01.2021 12:00:00 6,1 6,1 - - 0,2
13.01.2021 11:00:00 5,1 5,0 - - 0,2
13.01.2021 10:00:00 4,4 4,3 - - 0,4
13.01.2021 09:00:00 3,9 3,7 5,0 6,5 0,4
13.01.2021 08:00:00 3,6 3,3 - - 0,0
13.01.2021 07:00:00 3,8 3,5 - - 0,0
13.01.2021 06:00:00 3,4 3,0 - - 0,0
13.01.2021 05:00:00 3,2 2,4 - - 0,0
13.01.2021 04:00:00 2,8 1,9 - - 0,0
13.01.2021 03:00:00 1,6 1,2 - - 0,0
13.01.2021 02:00:00 0,7 0,0 - - 0,0
13.01.2021 01:00:00 1,0 0,5 - - 0,0
13.01.2021 00:00:00 -0,1 -0,4 - - 0,0
12.01.2021 23:00:00 0,4 0,1 - - 0,0
12.01.2021 22:00:00 0,8 0,5 - - 0,0
12.01.2021 21:00:00 0,6 0,1 - - 0,0
12.01.2021 20:00:00 0,9 0,2 - - 0,0
12.01.2021 19:00:00 1,4 0,7 - - 0,0
12.01.2021 18:00:00 1,4 0,6 - - 0,0
12.01.2021 17:00:00 2,1 0,6 - - 0,0
12.01.2021 16:00:00 3,4 0,1 - - 0,0
12.01.2021 15:00:00 4,1 1,3 - - 0,0
12.01.2021 14:00:00 4,5 2,2 - - 0,0
12.01.2021 13:00:00 4,2 2,1 - - 0,0
12.01.2021 12:00:00 4,3 3,0 - - 0,0
12.01.2021 11:00:00 4,8 3,8 - - 0,0
12.01.2021 10:00:00 6,0 4,7 - - 0,2
12.01.2021 09:00:00 6,6 5,9 5,0 6,5 0,0
12.01.2021 08:00:00 6,8 6,2 - - 0,0
12.01.2021 07:00:00 7,0 6,3 - - 0,2
12.01.2021 06:00:00 7,0 6,4 - - 0,0
12.01.2021 05:00:00 7,3 6,6 - - 0,4
12.01.2021 04:00:00 7,9 7,1 - - 1,4
12.01.2021 03:00:00 8,5 7,8 - - 1,8
12.01.2021 02:00:00 8,4 7,7 - - 1,8
12.01.2021 01:00:00 8,7 7,6 - - 0,6
12.01.2021 00:00:00 8,6 7,8 - - 0,4
11.01.2021 23:00:00 8,4 7,8 - - 0,4
11.01.2021 22:00:00 8,0 7,4 - - 0,2
11.01.2021 21:00:00 7,8 7,1 - - 0,2
11.01.2021 20:00:00 7,8 6,8 - - 0,0
11.01.2021 19:00:00 7,7 6,4 - - 0,0
11.01.2021 18:00:00 7,4 5,9 - - 0,0
11.01.2021 17:00:00 7,3 5,3 - - 0,0
11.01.2021 16:00:00 7,4 4,7 - - 0,0
11.01.2021 15:00:00 7,2 4,2 - - -
11.01.2021 14:00:00 7,2 3,8 - - 0,0
11.01.2021 13:00:00 7,0 3,4 - - 0,2
11.01.2021 12:00:00 6,3 3,2 - - 0,0
11.01.2021 11:00:00 5,7 3,0 - - 0,0
11.01.2021 10:00:00 5,7 2,9 - - 0,0
11.01.2021 09:00:00 5,0 2,4 4,4 6,5 0,0
11.01.2021 08:00:00 5,2 2,2 - - 0,0
11.01.2021 07:00:00 4,9 1,9 - - 0,0
11.01.2021 06:00:00 4,9 2,4 - - 0,0
11.01.2021 05:00:00 5,1 2,6 - - 0,0
11.01.2021 04:00:00 5,0 2,9 - - 0,0
11.01.2021 03:00:00 5,1 3,2 - - 0,0
11.01.2021 02:00:00 4,9 3,3 - - 0,0
11.01.2021 01:00:00 4,5 3,2 - - 0,0
11.01.2021 00:00:00 4,4 3,2 - - 0,0
10.01.2021 23:00:00 4,5 3,2 - - 0,0
10.01.2021 22:00:00 4,3 3,1 - - 0,0
10.01.2021 21:00:00 3,5 2,6 - - 0,0
10.01.2021 20:00:00 3,3 2,4 - - 0,0
10.01.2021 19:00:00 2,9 2,1 - - 0,0
10.01.2021 18:00:00 3,0 2,1 - - 0,0
10.01.2021 17:00:00 3,3 2,2 - - 0,0
10.01.2021 16:00:00 3,7 2,2 - - 0,0
10.01.2021 15:00:00 4,0 2,5 - - 0,0
10.01.2021 14:00:00 3,5 2,0 - - 0,0
10.01.2021 13:00:00 3,0 1,5 - - 0,0
10.01.2021 12:00:00 2,2 0,9 - - 0,0
10.01.2021 11:00:00 1,6 0,4 - - 0,0
10.01.2021 10:00:00 1,0 0,2 - - 0,0
10.01.2021 09:00:00 0,4 -0,4 4,2 6,7 0,0
10.01.2021 08:00:00 0,0 -0,7 - - 0,0
10.01.2021 07:00:00 0,0 -0,7 - - 0,0
10.01.2021 06:00:00 -0,4 -0,8 - - 0,0
10.01.2021 05:00:00 -1,0 -1,5 - - 0,0

tt = temperature
td = dewpoint
tt -20cm = temperature -20cm
tt -100cm = temperature -100cm
rr = precipitation

Next stations